#timestamp,LO_Frequency,Hit,StdDev 
1597901315.3,286046992.3,P
1597901335.1,286046991.8,P
1597901355.9,286046994.7,P
1597901375.7,286046992.0,Y
1597901395.6,286047002.8,P
1597901415.4,286047002.4,N
1597901435.2,286047002.7,N
1597901455.1,286046999.7,N
1597901456.0,286046999.7,N
1597901475.8,286047002.6,N
1597901495.6,286046999.7,N
1597901515.5,286047002.6,N
1597901535.3,286047002.6,N
1597901555.2,286046999.8,N
1597901575.9,286047002.3,N
1597901595.7,286047002.7,N
1597901615.6,286047000.2,N
1597901635.4,286046998.2,N
1597901655.2,286046999.0,N
1597901675.1,286046996.6,N
1597901676.0,286046996.6,N
1597901695.8,286046997.2,N
1597901715.7,286046996.5,N
1597901735.5,286046997.5,N
1597901755.3,286046995.0,N
1597901775.2,286046995.5,N
1597901795.9,286046995.1,N
1597901815.7,286046995.7,N
1597901835.6,286046996.0,N
1597901855.4,286046993.3,N
1597901875.2,286046993.6,N
1597901895.1,286046995.9,N
1597901896.0,286046995.9,N
1597901915.8,286046995.2,N
1597901935.7,286046991.7,N
1597901955.5,286046993.3,N
1597901975.3,286046993.8,N
1597901995.2,286046993.8,N
1597902015.0,286046995.1,N
1597902015.9,286046995.1,N
1597902035.8,286046994.1,N
1597902055.6,286046994.5,N
1597902075.4,286046994.0,N
1597902095.3,286046994.4,N
1597902115.1,286046991.9,Y
1597902135.8,286046994.9,P
1597902155.7,286046996.2,P
1597902175.5,286046995.0,P
1597902195.4,286046997.7,Y
1597902215.2,286047002.8,P
1597902235.0,286046999.8,N
1597902235.9,286046999.8,N
1597902255.8,286046998.5,N
1597902275.6,286046999.6,N
1597902295.4,286046997.0,N
1597902315.3,286046996.8,N
1597902335.1,286046997.8,N
1597902355.9,286046997.3,N
1597902375.7,286046997.8,N
1597902395.5,286046996.8,N
1597902415.4,286046995.4,N
1597902435.2,286046997.8,N
1597902455.0,286046995.5,N
1597902455.9,286046995.5,N
1597902475.8,286046997.7,N
1597902495.6,286046997.5,N
1597902515.5,286046997.9,N
1597902535.3,286046997.3,N
1597902555.1,286046998.7,N
1597902575.9,286046996.8,N
1597902595.7,286046997.9,N
1597902615.5,286046998.9,N
1597902635.4,286046999.8,N
1597902655.2,286047000.4,N
1597902675.1,286046999.9,N
1597902676.0,286046999.9,N
1597902695.8,286047000.5,N
1597902715.6,286047000.9,N
1597902735.5,286046998.7,N
1597902755.3,286046999.6,N
1597902775.1,286046998.9,N
1597902795.9,286046999.5,N
1597902815.7,286046999.1,N
1597902835.6,286046996.8,N
1597902855.4,286046996.8,N
1597902875.2,286046997.0,N
1597902895.1,286046996.7,N
1597902896.0,286046996.7,N
1597902915.8,286046997.2,N
1597902935.7,286046997.4,N
1597902955.5,286046996.6,N
1597902975.3,286046995.5,Y
1597902995.2,286046999.0,P
1597903015.0,286046998.7,P
1597903015.9,286046998.7,P
1597903035.7,286046999.2,N
1597903055.6,286047000.5,N
1597903075.4,286047001.1,N
1597903095.3,286046997.0,Y
1597903115.1,286046997.0,P
1597903135.8,286046999.6,N
1597903155.7,286046996.9,N
1597903175.5,286046998.0,N
1597903195.4,286046996.4,Y
